When you browse on this site, cookies collect data to enhance your experience and personalize the content and advertising you see.
Visit our Privacy Policy to learn more. By continuing to use the site, you agree to this use of cookies and data.
  • In Hungary
  • List of Countries
  • For 7 days
  • Water Temperature
  • Weather Map
  • News
  • Weather Widgets
  • user-avatar
    Login

    Hourly Weather Obra

    Today, 3 April, Friday

    Time Temperature Precipitation Wind Pressure Humidity
    00:00 +3°C° 0 mm 4 mps 749 mmHg 76%
    01:00 +3°C° 0 mm 4 mps 748 mmHg 76%
    02:00 +2°C° 0 mm 5 mps 748 mmHg 77%
    03:00 +2°C° 0 mm 5 mps 748 mmHg 77%
    04:00 +2°C° 0 mm 6 mps 748 mmHg 78%
    05:00 +3°C° 0.2 mm 5 mps 749 mmHg 77%
    06:00 +3°C° 0.2 mm 5 mps 750 mmHg 76%
    07:00 +3°C° 0.2 mm 5 mps 751 mmHg 75%
    08:00 +4°C° 0 mm 6 mps 751 mmHg 67%
    09:00 +5°C° 0 mm 6 mps 751 mmHg 59%
    10:00 +6°C° 0 mm 7 mps 752 mmHg 51%
    11:00 +6°C° 0 mm 7 mps 752 mmHg 49%
    12:00 +8°C° 0 mm 6 mps 753 mmHg 46%
    13:00 +9°C° 0 mm 6 mps 753 mmHg 44%
    14:00 +9°C° 0 mm 6 mps 753 mmHg 44%
    15:00 +9°C° 0 mm 6 mps 753 mmHg 43%
    16:00 +9°C° 0 mm 5 mps 754 mmHg 43%
    17:00 +8°C° 0 mm 4 mps 754 mmHg 48%
    18:00 +7°C° 0 mm 3 mps 755 mmHg 54%
    19:00 +6°C° 0 mm 2 mps 755 mmHg 59%
    20:00 +5°C° 0 mm 2 mps 755 mmHg 64%
    21:00 +5°C° 0 mm 2 mps 756 mmHg 68%
    22:00 +4°C° 0 mm 2 mps 756 mmHg 72%
    23:00 +3°C° 0 mm 2 mps 757 mmHg 75%

    Tomorrow, 4 April, Saturday

    Time Temperature Precipitation Wind Pressure Humidity
    00:00 +3°C° 0 mm 2 mps 757 mmHg 77%
    01:00 +3°C° 0 mm 2 mps 758 mmHg 79%
    02:00 +2°C° 0 mm 2 mps 758 mmHg 81%
    03:00 +2°C° 0 mm 2 mps 758 mmHg 83%
    04:00 +2°C° 0 mm 2 mps 759 mmHg 84%
    05:00 +2°C° 0 mm 2 mps 759 mmHg 81%
    06:00 +2°C° 0 mm 3 mps 760 mmHg 78%
    07:00 +3°C° 0 mm 3 mps 761 mmHg 75%
    08:00 +4°C° 0 mm 3 mps 761 mmHg 68%
    09:00 +5°C° 0 mm 3 mps 762 mmHg 60%
    10:00 +8°C° 0 mm 3 mps 762 mmHg 52%
    11:00 +8°C° 0 mm 3 mps 763 mmHg 48%
    12:00 +9°C° 0 mm 3 mps 763 mmHg 44%
    13:00 +10°C° 0 mm 3 mps 763 mmHg 40%
    14:00 +10°C° 0 mm 2 mps 763 mmHg 39%
    15:00 +10°C° 0 mm 2 mps 763 mmHg 39%
    16:00 +10°C° 0 mm 2 mps 764 mmHg 39%
    17:00 +9°C° 0 mm 2 mps 764 mmHg 44%
    18:00 +8°C° 0 mm 1 mps 765 mmHg 50%
    19:00 +7°C° 0 mm 1 mps 765 mmHg 55%
    20:00 +6°C° 0 mm 1 mps 766 mmHg 58%
    21:00 +5°C° 0 mm 1 mps 766 mmHg 62%
    22:00 +5°C° 0 mm 1 mps 767 mmHg 65%
    23:00 +4°C° 0 mm 1 mps 767 mmHg 66%

    Day after tomorrow, 5 April, Sunday

    Time Temperature Precipitation Wind Pressure Humidity
    00:00 +4°C° 0 mm 1 mps 768 mmHg 68%
    01:00 +4°C° 0 mm 1 mps 768 mmHg 70%
    02:00 +2°C° 0 mm 2 mps 768 mmHg 71%
    03:00 +2°C° 0 mm 2 mps 768 mmHg 72%
    04:00 +2°C° 0 mm 2 mps 768 mmHg 73%
    05:00 +2°C° 0 mm 2 mps 769 mmHg 71%
    06:00 +2°C° 0 mm 3 mps 769 mmHg 69%
    07:00 +3°C° 0 mm 3 mps 769 mmHg 67%
    08:00 +5°C° 0 mm 3 mps 769 mmHg 61%
    09:00 +7°C° 0 mm 4 mps 769 mmHg 55%
    10:00 +9°C° 0 mm 5 mps 769 mmHg 49%
    11:00 +10°C° 0 mm 5 mps 769 mmHg 47%
    12:00 +12°C° 0 mm 5 mps 769 mmHg 45%
    13:00 +12°C° 0 mm 5 mps 768 mmHg 44%
    14:00 +12°C° 0 mm 5 mps 768 mmHg 44%
    15:00 +13°C° 0 mm 6 mps 767 mmHg 44%
    16:00 +13°C° 0 mm 6 mps 767 mmHg 44%
    17:00 +10°C° 0 mm 5 mps 767 mmHg 48%
    18:00 +9°C° 0 mm 5 mps 767 mmHg 53%
    19:00 +7°C° 0 mm 4 mps 767 mmHg 58%
    20:00 +7°C° 0 mm 5 mps 767 mmHg 58%
    21:00 +6°C° 0 mm 5 mps 767 mmHg 57%
    22:00 +6°C° 0 mm 5 mps 767 mmHg 57%
    23:00 +5°C° 0 mm 5 mps 767 mmHg 58%

    6 April, Monday

    Time Temperature Precipitation Wind Pressure Humidity
    00:00 +5°C° 0 mm 5 mps 766 mmHg 60%
    01:00 +3°C° 0 mm 5 mps 766 mmHg 61%
    02:00 +3°C° 0 mm 5 mps 766 mmHg 63%
    03:00 +3°C° 0 mm 5 mps 766 mmHg 65%
    04:00 +3°C° 0 mm 4 mps 765 mmHg 67%
    05:00 +3°C° 0 mm 5 mps 765 mmHg 66%
    06:00 +5°C° 0 mm 5 mps 765 mmHg 64%
    07:00 +5°C° 0 mm 5 mps 765 mmHg 63%
    08:00 +8°C° 0 mm 5 mps 765 mmHg 58%
    09:00 +10°C° 0 mm 6 mps 765 mmHg 54%
    10:00 +13°C° 0 mm 6 mps 765 mmHg 49%
    11:00 +15°C° 0 mm 7 mps 765 mmHg 47%
    12:00 +16°C° 0 mm 7 mps 765 mmHg 45%
    13:00 +17°C° 0 mm 7 mps 765 mmHg 43%
    14:00 +17°C° 0 mm 7 mps 765 mmHg 44%
    15:00 +17°C° 0 mm 7 mps 764 mmHg 44%
    16:00 +18°C° 0 mm 7 mps 764 mmHg 45%
    17:00 +16°C° 0 mm 6 mps 764 mmHg 50%
    18:00 +14°C° 0 mm 5 mps 765 mmHg 56%
    19:00 +12°C° 0 mm 4 mps 765 mmHg 61%
    20:00 +12°C° 0 mm 4 mps 765 mmHg 62%
    21:00 +11°C° 0 mm 4 mps 765 mmHg 62%
    22:00 +10°C° 0 mm 4 mps 766 mmHg 62%
    23:00 +8°C° 0 mm 4 mps 766 mmHg 62%

    7 April, Tuesday

    Time Temperature Precipitation Wind Pressure Humidity
    00:00 +9°C° 0 mm 3 mps 766 mmHg 63%
    01:00 +8°C° 0 mm 3 mps 766 mmHg 63%
    02:00 +8°C° 0 mm 3 mps 767 mmHg 63%
    03:00 +7°C° 0 mm 3 mps 767 mmHg 62%
    04:00 +7°C° 0 mm 3 mps 767 mmHg 62%
    05:00 +7°C° 0 mm 3 mps 767 mmHg 62%
    06:00 +8°C° 0 mm 2 mps 768 mmHg 62%
    07:00 +9°C° 0 mm 2 mps 768 mmHg 62%
    08:00 +12°C° 0 mm 2 mps 769 mmHg 60%
    09:00 +14°C° 0 mm 2 mps 769 mmHg 58%
    10:00 +16°C° 0 mm 2 mps 769 mmHg 56%
    11:00 +17°C° 0 mm 2 mps 770 mmHg 54%
    12:00 +19°C° 0 mm 2 mps 770 mmHg 52%
    13:00 +20°C° 0 mm 2 mps 770 mmHg 50%
    14:00 +20°C° 0 mm 2 mps 770 mmHg 52%
    15:00 +19°C° 0 mm 3 mps 770 mmHg 55%
    16:00 +19°C° 0 mm 3 mps 770 mmHg 57%
    17:00 +17°C° 0 mm 3 mps 770 mmHg 62%
    18:00 +16°C° 0 mm 3 mps 770 mmHg 67%
    19:00 +13°C° 0 mm 3 mps 770 mmHg 72%
    20:00 +12°C° 0 mm 3 mps 771 mmHg 72%
    21:00 +11°C° 0 mm 3 mps 771 mmHg 71%
    22:00 +10°C° 0 mm 3 mps 771 mmHg 71%
    23:00 +9°C° 0 mm 3 mps 771 mmHg 70%

    8 April, Wednesday

    Time Temperature Precipitation Wind Pressure Humidity
    00:00 +9°C° 0 mm 3 mps 772 mmHg 70%
    01:00 +8°C° 0 mm 2 mps 772 mmHg 69%
    02:00 +8°C° 0 mm 2 mps 772 mmHg 70%
    03:00 +7°C° 0 mm 2 mps 772 mmHg 71%
    04:00 +7°C° 0 mm 2 mps 772 mmHg 72%
    05:00 +7°C° 0 mm 2 mps 772 mmHg 73%
    06:00 +8°C° 0 mm 2 mps 772 mmHg 75%
    07:00 +9°C° 0 mm 2 mps 772 mmHg 77%
    08:00 +12°C° 0 mm 2 mps 771 mmHg 73%
    09:00 +14°C° 0 mm 2 mps 771 mmHg 69%
    10:00 +16°C° 0 mm 2 mps 771 mmHg 65%
    11:00 +17°C° 0 mm 2 mps 770 mmHg 61%
    12:00 +18°C° 0 mm 2 mps 770 mmHg 58%
    13:00 +19°C° 0 mm 2 mps 770 mmHg 54%
    14:00 +20°C° 0 mm 2 mps 769 mmHg 54%
    15:00 +20°C° 0 mm 2 mps 769 mmHg 54%
    16:00 +20°C° 0 mm 2 mps 768 mmHg 54%
    17:00 +18°C° 0 mm 2 mps 768 mmHg 60%
    18:00 +16°C° 0 mm 2 mps 768 mmHg 66%
    19:00 +15°C° 0 mm 2 mps 767 mmHg 72%
    20:00 +14°C° 0 mm 2 mps 768 mmHg 74%
    21:00 +13°C° 0 mm 2 mps 768 mmHg 76%
    22:00 +12°C° 0 mm 2 mps 768 mmHg 78%
    23:00 +12°C° 0 mm 2 mps 767 mmHg 79%
    Show more